sat.trackr.live / text

‹ back to catalog

STARLINK-4543

NORAD 53429 · 2022-097AT

PAYLOAD ACTIVE UNKNOWN

§ Identity

Operator
Country
US
Launch date
2022-08-10
Launch site
AFETR
Launch vehicle
Mass (kg)
RCS (m²)

Purposes: comms

External: N2YO · Heavens-Above · Gunter

§ Orbital elements

Epoch: 2026-05-25T04:57:47.511360Z

Period
95.44 min
Inclination
53.2138°
Eccentricity
0.0001241
Mean motion
15.08840499 rev/d
Perigee alt
538.9 km
Apogee alt
540.6 km
Semi-major
6,917.9 km
B*
1.7623e-5
RAAN
120.7368°
Arg perigee
79.0833°
Mean anomaly
281.0299°
Rev number
21,033

§ Raw data

STARLINK-45431 53429U 22097AT  26145.20679990 -.00000007  00000+0  17623-4 0  99932 53429  53.2138 120.7368 0001241  79.0833 281.0299 15.08840499210330

JSON: /api/v1/satellites/53429 · /tle

For live sub-satellite position, see the globe view (requires WebGL).

§ Visibility from observer

Set your observer location to see the next 7 days of passes ≥ 10°. The values pass through the URL so the page stays shareable.

No JS? Fill the form by hand. The geolocation button needs JavaScript.